Location: Claremont
(33.9858°S, 18.4575°E)
Time: 11:39:02
(UTC+00:00)

Okean 1 - Pass Details

Date: 03 March 2021
Orbit: 539 x 554 km, 82.5° (Epoch: 10 April)

Event Time Altitude Azimuth Distance (km) Brightness Sun altitude
Rises 18:14:58 0° 359° (N) 2,723 6.7 -12.0°
Reaches altitude 10° 18:17:07 10° 1° (N) 1,837 5.8 -12.4°
Maximum altitude 18:21:09 72° 85° (E) 593 3.2 -13.2°
Drops below altitude 10° 18:25:15 10° 169° (S) 1,861 6.1 -14.0°
Sets 18:27:26 0° 171° (S) 2,763 7.0 -14.5°
